period_start,C,m1,H,J0,J1,J2,J3,J4,J5,JA,JB,JC,JD,JJ,JK,JN,#
2014-09-25 00:02:15,0.00,0.05,0.00,21.64,26.85,29.46,9.56,38.31,1009.81,2040.00,3497.98,3315.02,3598.98,499.79,495.45,10.50,0000 0000 0000 0000 000000
2014-09-25 00:07:17,0.00,0.05,0.00,21.53,26.86,29.51,9.58,38.17,1009.82,2040.00,3497.96,3315.00,3598.97,499.78,495.66,10.55,0000 0000 0000 0000 000000
2014-09-25 00:12:18,0.01,0.05,0.00,21.28,26.87,29.58,9.63,38.38,1009.81,2040.00,3497.66,3315.00,3598.91,499.95,496.20,10.59,0000 0000 0000 0000 000000
2014-09-25 00:17:19,0.01,0.05,0.00,21.06,26.87,29.63,9.68,38.37,1009.82,2040.00,3497.06,3314.99,3598.47,500.37,497.09,10.63,0000 0000 0000 0000 000000
2014-09-25 00:22:20,0.00,0.05,0.00,20.47,26.87,29.85,9.65,38.77,1009.82,2040.00,3497.01,3314.99,3598.41,499.88,497.49,10.67,0000 0000 0000 0000 000000
2014-09-25 00:27:21,0.00,0.05,0.00,20.11,26.87,29.86,9.76,38.99,1009.82,2040.00,3497.00,3314.99,3598.11,499.72,498.03,10.71,0000 0000 0000 0000 000000
2014-09-25 00:32:22,0.00,0.05,0.00,20.07,26.87,29.70,9.69,38.89,1009.82,2040.00,3496.97,3314.97,3598.05,499.68,497.90,10.75,0000 0000 0000 0000 000000
2014-09-25 00:37:23,-0.00,0.05,0.00,20.13,26.87,29.54,9.68,38.66,1009.81,2040.00,3496.88,3314.94,3598.01,499.64,497.84,10.80,0000 0000 0000 0000 000000
2014-09-25 00:42:25,0.01,0.05,0.00,20.15,26.87,29.35,9.65,38.78,1009.82,2040.00,3496.65,3314.75,3598.00,499.77,497.98,10.84,0000 0000 0000 0000 000000
2014-09-25 00:47:25,0.02,0.05,0.00,20.39,26.87,29.46,9.67,38.94,1009.82,2040.00,3496.02,3314.10,3597.94,499.72,497.49,10.88,0000 0000 0000 0000 000000
2014-09-25 00:52:26,0.03,0.05,0.00,20.69,26.87,29.64,9.63,38.85,1009.81,2040.00,3495.44,3313.99,3597.29,499.46,496.57,10.92,0000 0000 0000 0000 000000
2014-09-25 00:57:27,0.01,0.05,0.00,20.92,26.87,29.78,9.64,38.81,1009.84,2040.00,3494.98,3313.75,3597.00,499.68,496.34,10.96,0000 0000 0000 0000 000000
2014-09-25 01:02:28,0.03,0.06,0.00,21.11,26.87,29.85,9.56,38.70,1009.82,2040.00,3494.46,3313.12,3596.94,499.86,496.42,11.01,0000 0000 0000 0000 000000
2014-09-25 01:07:30,0.01,0.06,0.00,21.22,26.88,29.76,9.58,38.75,1009.84,2039.99,3494.10,3313.01,3596.49,500.03,496.40,11.05,0000 0000 0000 0000 000000
2014-09-25 01:12:31,0.00,0.06,0.00,21.20,26.90,29.67,9.52,38.81,1009.84,2039.98,3494.01,3313.00,3596.06,499.53,495.90,11.09,0000 0000 0000 0000 000000
2014-09-25 01:17:33,0.00,0.06,0.00,21.12,26.90,29.66,9.66,38.63,1009.82,2039.99,3494.00,3313.00,3596.01,499.91,496.41,11.13,0000 0000 0000 0000 000000
2014-09-25 01:22:34,0.00,0.06,0.00,21.18,26.90,29.65,9.56,38.52,1009.82,2039.98,3493.95,3312.98,3596.00,499.60,496.13,11.17,0000 0000 0000 0000 000000
2014-09-25 01:27:35,0.00,0.06,0.00,21.12,26.90,29.71,9.60,38.63,1009.84,2039.99,3493.79,3312.97,3596.00,500.41,496.73,11.22,0000 0000 0000 0000 000000
2014-09-25 01:32:36,0.02,0.06,0.00,21.03,26.92,29.77,9.61,38.56,1009.90,2039.98,3493.17,3312.74,3595.94,499.62,496.30,11.26,0000 0000 0000 0000 000000
2014-09-25 01:37:37,0.02,0.06,0.00,21.08,26.92,29.72,9.61,38.45,1010.00,2039.97,3493.01,3312.26,3595.61,499.77,496.50,11.30,0000 0000 0000 0000 000000
2014-09-25 01:42:38,0.01,0.06,0.00,21.08,26.92,29.71,9.61,38.53,1010.03,2039.98,3493.00,3312.09,3595.26,499.99,496.60,11.34,0000 0000 0000 0000 000000
2014-09-25 01:47:39,0.00,0.06,0.00,21.12,26.92,29.68,9.63,38.51,1010.07,2039.98,3492.99,3312.06,3595.08,499.97,496.57,11.38,0000 0000 0000 0000 000000
2014-09-25 01:52:40,0.00,0.06,0.00,21.17,26.92,29.70,9.61,38.52,1010.12,2039.98,3492.97,3312.01,3595.02,499.90,496.48,11.42,0000 0000 0000 0000 000000
2014-09-25 01:57:41,0.01,0.06,0.00,21.17,26.92,29.71,9.67,38.51,1010.14,2039.97,3492.61,3312.00,3595.00,500.32,496.92,11.47,0000 0000 0000 0000 000000
2014-09-25 02:02:42,0.00,0.06,0.00,21.16,26.93,29.74,9.58,38.31,1010.18,2039.97,3492.18,3312.00,3595.00,499.78,496.46,11.51,0000 0000 0000 0000 000000
2014-09-25 02:07:43,0.00,0.06,0.00,20.87,26.94,29.85,9.68,38.42,1010.12,2039.97,3492.03,3312.00,3594.99,499.97,497.06,11.55,0000 0000 0000 0000 000000
2014-09-25 02:12:45,0.00,0.06,0.00,20.70,26.94,30.01,9.70,38.37,1010.14,2039.97,3492.01,3312.00,3594.99,500.48,497.68,11.59,0000 0000 0000 0000 000000
2014-09-25 02:17:46,0.00,0.06,0.00,20.78,26.95,30.04,9.60,38.48,1010.14,2039.98,3492.00,3311.99,3594.98,499.42,496.61,11.63,0000 0000 0000 0000 000000
2014-09-25 02:22:47,0.00,0.06,0.00,20.94,26.95,30.05,9.66,38.49,1010.14,2039.96,3491.99,3311.99,3594.87,500.14,497.22,11.67,0000 0000 0000 0000 000000
2014-09-25 02:27:48,0.00,0.06,0.00,21.03,26.95,29.95,9.62,38.50,1010.13,2039.98,3491.91,3311.98,3594.63,499.98,496.75,11.72,0000 0000 0000 0000 000000
2014-09-25 02:32:49,0.01,0.06,0.00,21.06,26.95,29.98,9.62,38.58,1010.17,2039.97,3491.69,3311.95,3594.18,499.23,496.08,11.76,0000 0000 0000 0000 000000
2014-09-25 02:37:50,0.01,0.06,0.00,21.05,26.95,29.94,9.63,38.62,1010.19,2039.95,3491.40,3311.93,3594.06,500.27,497.11,11.80,0000 0000 0000 0000 000000
2014-09-25 02:42:51,0.01,0.06,0.00,21.06,26.95,29.90,9.67,38.52,1010.20,2039.96,3491.08,3311.70,3594.01,500.37,497.20,11.84,0000 0000 0000 0000 000000
2014-09-25 02:47:53,-0.00,0.06,0.00,21.08,26.96,29.86,9.64,38.63,1010.22,2039.95,3491.02,3311.58,3594.01,499.93,496.87,11.88,0000 0000 0000 0000 000000
2014-09-25 02:52:54,0.01,0.06,0.00,21.13,26.97,29.84,9.55,38.57,1010.24,2039.93,3491.00,3311.21,3594.00,500.18,496.71,11.93,0000 0000 0000 0000 000000
2014-09-25 02:57:55,-0.00,0.06,0.00,21.11,26.97,29.84,9.67,38.69,1010.25,2039.84,3490.99,3311.03,3593.96,499.84,496.61,11.97,0000 0000 0000 0000 000000
2014-09-25 03:02:56,0.00,0.06,0.00,21.09,26.97,29.88,9.62,38.58,1010.27,2039.86,3490.97,3311.00,3593.92,499.85,496.65,12.01,0000 0000 0000 0000 000000
2014-09-25 03:07:57,-0.02,0.06,0.00,21.24,26.97,29.84,9.65,38.63,1010.27,2039.70,3490.92,3311.00,3593.73,500.15,496.68,12.05,0000 0000 0000 0000 000000
2014-09-25 03:12:58,0.01,0.06,0.00,21.31,26.97,29.83,9.61,38.54,1010.27,2039.72,3490.78,3311.00,3593.47,499.95,496.48,12.09,0000 0000 0000 0000 000000
2014-09-25 03:17:59,0.01,0.06,0.00,21.27,26.97,29.80,9.60,38.56,1010.26,2039.74,3490.58,3311.00,3593.23,500.32,496.62,12.13,0000 0000 0000 0000 000000
2014-09-25 03:23:00,0.01,0.06,0.00,21.26,26.98,29.81,9.63,38.52,1010.25,2039.75,3490.52,3311.00,3593.13,499.55,496.13,12.18,0000 0000 0000 0000 000000
2014-09-25 03:28:01,-0.02,0.06,0.00,21.33,26.99,29.81,9.61,38.49,1010.23,2039.51,3490.11,3310.99,3593.02,499.39,495.72,12.22,0000 0000 0000 0000 000000
2014-09-25 03:33:02,0.02,0.06,0.00,21.25,26.99,29.81,9.61,38.47,1010.25,2039.58,3490.03,3310.98,3593.01,499.97,496.40,12.26,0000 0000 0000 0000 000000
2014-09-25 03:38:04,0.00,0.06,0.00,21.27,26.99,29.80,9.65,38.44,1010.25,2039.60,3490.01,3310.98,3593.00,499.84,496.16,12.30,0000 0000 0000 0000 000000
2014-09-25 03:43:05,-0.01,0.06,0.00,21.35,27.00,29.77,9.68,38.60,1010.25,2039.64,3490.00,3310.99,3593.01,500.47,496.84,12.34,0000 0000 0000 0000 000000
2014-09-25 03:48:06,-0.02,0.06,0.00,21.47,27.00,29.77,9.64,38.54,1010.25,2039.51,3490.00,3310.94,3593.00,500.20,496.28,12.39,0000 0000 0000 0000 000000
2014-09-25 03:53:07,0.01,0.06,0.00,21.51,27.00,29.75,9.63,38.58,1010.21,2039.57,3490.00,3310.93,3593.00,500.07,496.07,12.43,0000 0000 0000 0000 000000
2014-09-25 03:58:08,0.01,0.06,0.00,21.63,27.00,29.74,9.63,38.55,1010.20,2039.57,3490.00,3310.93,3593.00,500.10,495.96,12.47,0000 0000 0000 0000 000000
2014-09-25 04:03:09,-0.01,0.06,0.00,21.66,27.00,29.71,9.57,38.56,1010.21,2039.46,3489.98,3310.85,3592.98,500.31,496.11,12.51,0000 0000 0000 0000 000000
2014-09-25 04:08:10,-0.01,0.06,0.00,21.68,27.00,29.67,9.59,38.56,1010.25,2039.28,3489.96,3310.69,3592.96,499.95,495.75,12.55,0000 0000 0000 0000 000000
2014-09-25 04:13:12,0.01,0.06,0.00,21.84,27.00,29.65,9.52,38.25,1010.27,2039.44,3489.94,3310.70,3592.95,499.70,495.32,12.59,0000 0000 0000 0000 000000
2014-09-25 04:18:13,0.02,0.06,0.00,21.93,27.00,29.64,9.48,38.16,1010.27,2039.38,3489.71,3310.44,3592.87,499.56,494.96,12.64,0000 0000 0000 0000 000000
2014-09-25 04:23:14,0.01,0.06,0.00,21.97,27.00,29.64,9.60,38.30,1010.27,2039.37,3489.42,3310.29,3592.64,499.67,494.97,12.68,0000 0000 0000 0000 000000
2014-09-25 04:28:15,0.01,0.06,0.00,22.00,27.00,29.65,9.55,38.32,1010.27,2039.31,3489.13,3310.11,3592.41,499.98,495.18,12.72,0000 0000 0000 0000 000000
2014-09-25 04:33:16,-0.01,0.06,0.00,22.09,27.00,29.67,9.52,38.44,1010.27,2039.27,3489.06,3310.13,3592.30,499.68,494.83,12.76,0000 0000 0000 0000 000000
2014-09-25 04:38:18,0.01,0.06,0.00,22.11,27.00,29.66,9.73,38.62,1010.27,2039.27,3489.06,3310.09,3592.16,500.12,495.14,12.80,0000 0000 0000 0000 000000
2014-09-25 04:43:19,0.01,0.06,0.00,22.11,27.00,29.66,9.62,38.49,1010.27,2039.22,3489.01,3310.04,3592.05,500.05,495.05,12.85,0000 0000 0000 0000 000000
2014-09-25 04:48:20,-0.01,0.06,0.00,22.13,27.00,29.65,9.56,38.55,1010.27,2039.23,3489.01,3310.04,3592.06,499.83,494.82,12.89,0000 0000 0000 0000 000000
2014-09-25 04:53:21,0.02,0.06,0.00,22.05,26.99,29.64,9.62,38.57,1010.27,2039.41,3489.00,3310.06,3592.05,500.41,495.44,12.93,0000 0000 0000 0000 000000
2014-09-25 04:58:22,-0.01,0.06,0.00,22.16,26.99,29.66,9.53,38.88,1010.27,2039.38,3489.00,3310.02,3592.03,499.91,494.85,12.97,0000 0000 0000 0000 000000
2014-09-25 05:03:23,0.00,0.06,0.00,22.14,26.98,29.66,9.57,39.01,1010.27,2039.33,3489.00,3310.03,3592.03,500.19,495.06,13.01,0000 0000 0000 0000 000000
2014-09-25 05:08:24,-0.02,0.06,0.00,21.94,26.97,29.66,9.57,39.02,1010.27,2039.20,3489.00,3310.01,3592.01,499.92,495.20,13.05,0000 0000 0000 0000 000000
2014-09-25 05:13:25,0.01,0.06,0.00,21.87,26.97,29.65,9.57,38.99,1010.27,2039.28,3488.99,3310.00,3592.01,499.78,495.41,13.10,0000 0000 0000 0000 000000
2014-09-25 05:18:26,0.02,0.06,0.00,21.92,26.97,29.66,9.63,39.11,1010.27,2039.40,3488.98,3310.02,3592.00,500.13,495.38,13.14,0000 0000 0000 0000 000000
2014-09-25 05:23:27,-0.01,0.06,0.00,22.07,26.97,29.65,9.66,39.16,1010.27,2039.42,3488.98,3310.00,3592.00,500.20,495.38,13.18,0000 0000 0000 0000 000000
2014-09-25 05:28:29,0.02,0.07,0.00,21.95,26.97,29.64,9.54,38.91,1010.27,2039.56,3488.96,3310.01,3592.00,500.13,495.35,13.22,0000 0000 0000 0000 000000
2014-09-25 05:33:30,-0.02,0.07,0.00,22.07,26.97,29.66,9.58,38.83,1010.27,2039.44,3488.98,3310.02,3592.00,500.07,495.15,13.26,0000 0000 0000 0000 000000
2014-09-25 05:38:31,-0.01,0.06,0.00,22.00,26.97,29.65,9.62,39.05,1010.28,2039.40,3488.81,3310.00,3592.00,500.04,495.33,13.31,0000 0000 0000 0000 000000
2014-09-25 05:43:32,0.01,0.07,0.00,22.08,26.97,29.65,9.62,38.97,1010.28,2039.44,3488.52,3310.00,3591.99,500.29,495.48,13.35,0000 0000 0000 0000 000000
2014-09-25 05:48:34,0.01,0.07,0.00,22.12,26.96,29.64,9.59,39.01,1010.28,2039.47,3488.31,3310.00,3591.99,499.95,494.88,13.39,0000 0000 0000 0000 000000
2014-09-25 05:53:35,0.01,0.07,0.00,22.09,26.95,29.64,9.53,38.77,1010.28,2039.58,3488.12,3310.00,3591.99,499.66,494.81,13.43,0000 0000 0000 0000 000000
2014-09-25 05:58:36,0.02,0.07,0.00,22.20,26.95,29.63,9.65,38.69,1010.28,2039.60,3488.05,3310.00,3591.98,500.33,495.28,13.47,0000 0000 0000 0000 000000
2014-09-25 06:03:37,-0.01,0.07,0.00,22.23,26.95,29.64,9.58,38.61,1010.28,2039.58,3488.02,3310.00,3591.98,500.40,495.15,13.51,0000 0000 0000 0000 000000
2014-09-25 06:08:38,0.03,0.07,0.00,22.10,26.95,29.64,9.66,38.58,1010.28,2039.76,3488.04,3310.01,3591.98,500.23,495.43,13.56,0000 0000 0000 0000 000000
2014-09-25 06:13:40,0.00,0.07,0.00,22.14,26.95,29.62,9.59,38.63,1010.27,2039.81,3488.03,3310.00,3591.98,500.01,495.07,13.60,0000 0000 0000 0000 000000
2014-09-25 06:18:41,-0.03,0.07,0.00,22.14,26.95,29.61,9.61,38.73,1010.28,2039.59,3488.00,3309.99,3591.84,499.79,494.75,13.64,0000 0000 0000 0000 000000
2014-09-25 06:23:42,0.03,0.07,0.00,22.13,26.95,29.59,9.53,38.48,1010.29,2039.81,3488.00,3309.99,3591.89,499.94,494.96,13.68,0000 0000 0000 0000 000000
2014-09-25 06:28:43,-0.00,0.07,0.00,22.16,26.95,29.59,9.55,38.64,1010.28,2039.83,3488.00,3309.99,3591.89,500.03,494.96,13.72,0000 0000 0000 0000 000000
2014-09-25 06:33:45,-0.01,0.07,0.00,22.22,26.95,29.59,9.59,38.64,1010.28,2039.66,3488.00,3309.99,3591.56,500.78,495.77,13.77,0000 0000 0000 0000 000000
2014-09-25 06:38:46,0.01,0.07,0.00,22.24,26.95,29.61,9.61,38.98,1010.27,2039.82,3488.00,3309.99,3591.60,500.21,495.07,13.81,0000 0000 0000 0000 000000
2014-09-25 06:43:47,0.01,0.07,0.00,22.09,26.95,29.60,9.60,39.16,1010.27,2039.81,3488.00,3309.99,3591.49,500.07,495.16,13.85,0000 0000 0000 0000 000000
2014-09-25 06:48:48,-0.00,0.07,0.00,22.11,26.94,29.56,9.62,39.07,1010.27,2039.87,3488.00,3309.99,3591.60,500.19,495.23,13.89,0000 0000 0000 0000 000000
2014-09-25 06:53:49,0.00,0.07,0.00,22.13,26.94,29.56,9.59,39.07,1010.27,2039.87,3488.00,3309.99,3591.57,500.11,495.21,13.93,0000 0000 0000 0000 000000
2014-09-25 06:58:50,0.00,0.07,0.00,22.28,26.93,29.56,9.62,39.08,1010.27,2039.88,3488.00,3309.99,3591.35,500.40,495.33,13.97,0000 0000 0000 0000 000000
2014-09-25 07:03:52,0.01,0.07,0.00,22.31,26.92,29.56,9.58,38.98,1010.27,2039.90,3487.99,3309.99,3591.24,500.40,495.21,14.02,0000 0000 0000 0000 000000
2014-09-25 07:08:53,0.00,0.07,0.00,22.18,26.92,29.54,9.60,39.24,1010.27,2039.89,3487.98,3309.99,3591.11,500.15,494.92,14.06,0000 0000 0000 0000 000000
2014-09-25 07:13:54,-0.00,0.07,0.00,22.15,26.92,29.56,9.53,39.01,1010.27,2039.93,3487.97,3309.99,3591.16,500.06,494.98,14.10,0000 0000 0000 0000 000000
2014-09-25 07:18:55,0.00,0.07,0.00,22.26,26.92,29.59,9.54,39.03,1010.27,2039.96,3487.95,3309.99,3591.23,500.46,495.22,14.14,0000 0000 0000 0000 000000
2014-09-25 07:23:56,0.00,0.07,0.00,22.26,26.92,29.60,9.48,38.77,1010.27,2039.95,3487.56,3309.99,3591.06,499.71,494.61,14.18,0000 0000 0000 0000 000000
2014-09-25 07:28:57,0.00,0.07,0.00,22.25,26.92,29.60,9.54,38.91,1010.27,2039.97,3487.24,3309.99,3591.08,499.62,494.43,14.23,0000 0000 0000 0000 000000
2014-09-25 07:33:59,-0.00,0.07,0.00,22.28,26.92,29.58,9.52,38.84,1010.27,2039.97,3487.17,3309.99,3591.04,500.10,494.64,14.27,0000 0000 0000 0000 000000
2014-09-25 07:39:00,0.00,0.07,0.00,22.32,26.91,29.58,9.57,38.58,1010.27,2039.98,3487.13,3309.99,3591.04,499.92,494.77,14.31,0000 0000 0000 0000 000000
2014-09-25 07:44:01,-0.00,0.07,0.00,22.35,26.90,29.57,9.47,38.75,1010.27,2039.97,3487.01,3309.98,3591.00,500.10,495.02,14.35,0000 0000 0000 0000 000000
2014-09-25 07:49:03,-0.00,0.07,0.00,22.27,26.90,29.59,9.61,38.84,1010.27,2039.98,3487.00,3309.98,3591.00,500.31,495.14,14.39,0000 0000 0000 0000 000000
2014-09-25 07:54:04,0.00,0.07,0.00,22.27,26.90,29.59,9.50,38.74,1010.27,2039.98,3487.00,3309.98,3591.01,499.84,494.69,14.43,0000 0000 0000 0000 000000
2014-09-25 07:59:05,0.00,0.07,0.00,22.17,26.90,29.56,9.58,38.76,1010.27,2039.97,3486.99,3309.97,3590.99,500.02,495.05,14.48,0000 0000 0000 0000 000000
2014-09-25 08:04:06,-0.00,0.07,0.00,22.31,26.90,29.57,9.59,38.76,1010.27,2039.97,3486.99,3309.96,3590.99,500.15,494.84,14.52,0000 0000 0000 0000 000000
2014-09-25 08:09:07,0.00,0.07,0.00,22.35,26.90,29.56,9.56,38.92,1010.27,2039.98,3486.97,3309.98,3590.99,499.90,494.71,14.56,0000 0000 0000 0000 000000
2014-09-25 08:14:09,-0.00,0.07,0.00,22.36,26.90,29.53,9.60,38.86,1010.27,2039.98,3486.98,3309.98,3590.99,500.07,494.75,14.60,0000 0000 0000 0000 000000
2014-09-25 08:19:10,-0.00,0.07,0.00,22.38,26.89,29.53,9.65,38.83,1010.27,2039.98,3486.98,3309.98,3590.99,500.16,494.76,14.64,0000 0000 0000 0000 000000
2014-09-25 08:24:11,0.00,0.07,0.00,22.34,26.88,29.53,9.63,38.82,1010.27,2039.99,3486.98,3309.97,3590.99,500.19,494.96,14.69,0000 0000 0000 0000 000000
2014-09-25 08:29:12,0.00,0.07,0.00,22.33,26.87,29.51,9.46,38.70,1010.27,2039.99,3486.98,3309.96,3590.99,499.78,494.83,14.73,0000 0000 0000 0000 000000
2014-09-25 08:34:13,0.00,0.07,0.00,22.26,26.87,29.50,9.56,38.93,1010.27,2039.98,3486.96,3309.95,3590.98,500.00,494.92,14.77,0000 0000 0000 0000 000000
2014-09-25 08:39:15,-0.00,0.07,0.00,22.25,26.87,29.51,9.58,38.63,1010.27,2039.98,3486.92,3309.96,3590.99,500.01,495.00,14.81,0000 0000 0000 0000 000000
2014-09-25 08:44:16,0.00,0.07,0.00,22.27,26.87,29.50,9.55,38.82,1010.27,2039.99,3486.72,3309.95,3590.95,500.12,494.93,14.85,0000 0000 0000 0000 000000
2014-09-25 08:49:17,0.00,0.07,0.00,22.30,26.87,29.51,9.52,38.86,1010.27,2039.99,3486.54,3309.94,3590.92,499.79,494.75,14.89,0000 0000 0000 0000 000000
2014-09-25 08:54:18,0.03,0.07,0.00,22.20,26.87,29.51,9.58,38.77,1010.27,2039.98,3486.12,3309.65,3590.70,499.93,494.77,14.94,0000 0000 0000 0000 000000
2014-09-25 08:59:19,0.01,0.07,0.00,22.22,26.87,29.52,9.57,38.67,1010.27,2039.98,3486.01,3309.35,3590.24,500.14,495.10,14.98,0000 0000 0000 0000 000000
2014-09-25 09:04:20,0.01,0.07,0.00,22.10,26.87,29.52,9.62,38.59,1010.27,2039.99,3486.00,3309.25,3590.11,500.04,495.23,15.02,0000 0000 0000 0000 000000
2014-09-25 09:09:21,0.00,0.07,0.00,22.11,26.87,29.52,9.55,38.85,1010.27,2039.98,3486.00,3309.09,3590.04,500.12,495.11,15.06,0000 0000 0000 0000 000000
2014-09-25 09:14:22,0.00,0.07,0.00,22.05,26.87,29.51,9.60,38.89,1010.27,2039.98,3485.98,3309.05,3590.01,500.08,495.31,15.10,0000 0000 0000 0000 000000
2014-09-25 09:19:23,0.00,0.07,0.00,22.03,26.87,29.53,9.57,38.98,1010.27,2039.98,3485.96,3309.03,3590.01,500.10,495.31,15.15,0000 0000 0000 0000 000000
2014-09-25 09:24:24,0.00,0.07,0.00,22.12,26.87,29.53,9.54,38.80,1010.27,2039.99,3485.78,3309.00,3590.00,499.67,494.91,15.19,0000 0000 0000 0000 000000
2014-09-25 09:29:25,-0.00,0.07,0.00,22.18,26.87,29.54,9.62,38.59,1010.27,2039.99,3485.56,3309.00,3590.00,499.90,494.83,15.23,0000 0000 0000 0000 000000
2014-09-25 09:34:26,0.00,0.07,0.00,22.07,26.88,29.54,9.58,38.59,1010.27,2039.99,3485.19,3309.00,3589.99,500.11,495.25,15.27,0000 0000 0000 0000 000000
2014-09-25 09:39:27,0.00,0.07,0.00,21.95,26.88,29.54,9.48,38.35,1010.27,2039.99,3485.06,3309.00,3589.97,499.78,495.18,15.31,0000 0000 0000 0000 000000
2014-09-25 09:44:28,0.00,0.07,0.00,21.86,26.88,29.55,9.56,38.43,1010.27,2039.99,3485.01,3309.00,3589.96,499.58,495.13,15.36,0000 0000 0000 0000 000000
2014-09-25 09:49:29,-0.00,0.07,0.00,21.87,26.88,29.56,9.51,38.38,1010.28,2039.98,3485.00,3308.99,3589.93,499.41,494.92,15.40,0000 0000 0000 0000 000000
2014-09-25 09:54:31,0.01,0.07,0.00,21.71,26.88,29.55,9.60,38.56,1010.27,2039.99,3485.00,3308.99,3589.78,499.80,495.62,15.44,0000 0000 0000 0000 000000
2014-09-25 09:59:32,-0.00,0.07,0.00,21.63,26.89,29.55,9.54,38.72,1010.27,2039.99,3485.00,3308.99,3589.69,499.61,495.66,15.48,0000 0000 0000 0000 000000
2014-09-25 10:04:33,0.01,0.07,0.00,21.65,26.89,29.56,9.58,38.65,1010.27,2039.99,3484.98,3308.96,3589.33,499.91,495.69,15.52,0000 0000 0000 0000 000000
2014-09-25 10:09:34,0.03,0.07,0.00,21.65,26.90,29.56,9.66,38.73,1010.27,2039.99,3484.66,3308.71,3589.08,500.50,496.33,15.56,0000 0000 0000 0000 000000
2014-09-25 10:14:35,0.02,0.08,0.00,21.60,26.90,29.56,9.56,39.02,1010.27,2039.99,3484.01,3308.02,3588.99,499.98,495.92,15.61,0000 0000 0000 0000 000000
2014-09-25 10:19:36,-0.00,0.08,0.00,21.65,26.90,29.59,9.57,38.89,1010.27,2039.98,3483.97,3308.00,3588.92,500.03,495.86,15.65,0000 0000 0000 0000 000000
2014-09-25 10:24:38,0.02,0.08,0.00,21.68,26.90,29.57,9.67,38.90,1010.27,2039.96,3483.74,3308.00,3588.53,499.71,495.60,15.69,0000 0000 0000 0000 000000
2014-09-25 10:29:39,0.01,0.08,0.00,21.48,26.91,29.59,9.67,39.09,1010.27,2039.97,3483.26,3307.98,3588.13,500.41,496.61,15.73,0000 0000 0000 0000 000000
2014-09-25 10:34:40,0.00,0.08,0.00,21.49,26.92,29.58,9.54,38.74,1010.27,2039.97,3483.11,3307.99,3588.06,499.92,496.05,15.77,0000 0000 0000 0000 000000
2014-09-25 10:39:41,-0.00,0.08,0.00,21.63,26.92,29.58,9.61,38.65,1010.27,2039.97,3483.03,3307.98,3588.01,500.03,495.88,15.81,0000 0000 0000 0000 000000
2014-09-25 10:44:43,0.00,0.08,0.00,21.57,26.92,29.60,9.66,39.01,1010.27,2039.96,3483.02,3307.90,3588.01,500.16,496.18,15.86,0000 0000 0000 0000 000000
2014-09-25 10:49:44,0.01,0.08,0.00,21.68,26.93,29.61,9.59,39.05,1010.27,2039.92,3483.00,3307.49,3588.00,499.75,495.50,15.90,0000 0000 0000 0000 000000
2014-09-25 10:54:45,-0.00,0.08,0.00,21.63,26.94,29.62,9.64,38.92,1010.27,2039.90,3482.98,3307.38,3587.99,500.14,496.00,15.94,0000 0000 0000 0000 000000
2014-09-25 10:59:46,0.01,0.08,0.00,21.59,26.95,29.64,9.56,38.63,1010.27,2039.91,3482.95,3307.08,3587.97,500.09,496.01,15.98,0000 0000 0000 0000 000000
2014-09-25 11:04:47,-0.01,0.08,0.00,21.37,26.95,29.68,9.63,38.68,1010.27,2039.87,3482.87,3307.04,3587.95,500.11,496.44,16.02,0000 0000 0000 0000 000000
2014-09-25 11:09:49,-0.00,0.08,0.00,21.28,26.95,29.71,9.63,38.97,1010.27,2039.73,3482.50,3307.02,3587.70,500.20,496.64,16.07,0000 0000 0000 0000 000000
2014-09-25 11:14:50,0.00,0.08,0.00,21.27,26.95,29.75,9.65,38.88,1010.27,2039.56,3482.15,3307.01,3587.33,500.38,496.74,16.11,0000 0000 0000 0000 000000
2014-09-25 11:19:51,-0.03,0.08,0.00,21.22,26.96,29.73,9.66,38.92,1010.27,2039.37,3482.05,3307.00,3587.13,500.51,497.12,16.15,0000 0000 0000 0000 000000
2014-09-25 11:24:52,-0.00,0.08,0.00,21.10,26.97,29.79,9.65,38.85,1010.27,2039.21,3482.00,3307.00,3587.01,500.27,497.17,16.19,0000 0000 0000 0000 000000
2014-09-25 11:29:53,-0.01,0.08,0.00,21.15,26.97,29.83,9.67,39.09,1010.27,2039.10,3482.00,3307.00,3587.00,499.78,496.47,16.23,0000 0000 0000 0000 000000
2014-09-25 11:34:55,0.01,0.08,0.00,21.14,26.97,29.83,9.62,38.75,1010.26,2039.13,3481.99,3306.99,3587.00,499.42,496.22,16.28,0000 0000 0000 0000 000000
2014-09-25 11:39:56,0.00,0.08,0.00,21.13,26.97,29.82,9.61,38.71,1010.23,2039.12,3481.99,3306.99,3587.00,499.89,496.46,16.32,0000 0000 0000 0000 000000
2014-09-25 11:44:57,-0.01,0.08,0.00,21.05,26.97,29.96,9.63,38.67,1010.21,2039.08,3481.97,3306.97,3586.99,499.57,496.51,16.36,0000 0000 0000 0000 000000
2014-09-25 11:49:58,0.00,0.08,0.00,21.11,26.97,29.95,9.65,38.68,1010.16,2039.05,3481.86,3306.94,3586.99,500.26,496.88,16.40,0000 0000 0000 0000 000000
2014-09-25 11:55:00,0.02,0.08,0.00,21.04,26.97,30.00,9.66,38.62,1010.21,2039.03,3481.30,3306.82,3586.89,500.02,496.71,16.44,0000 0000 0000 0000 000000
2014-09-25 12:00:01,0.01,0.08,0.00,21.02,26.97,30.09,9.60,38.77,1010.14,2039.03,3481.10,3306.71,3586.82,499.72,496.57,16.49,0000 0000 0000 0000 000000
2014-09-25 12:05:02,0.01,0.08,0.00,20.95,26.97,30.06,9.59,38.50,1010.08,2039.04,3481.03,3306.63,3586.70,499.77,496.75,16.53,0000 0000 0000 0000 000000
2014-09-25 12:10:03,0.01,0.08,0.00,20.98,26.97,30.07,9.73,38.66,1010.01,2039.02,3481.00,3306.36,3586.34,500.27,497.10,16.57,0000 0000 0000 0000 000000
2014-09-25 12:15:04,0.00,0.08,0.00,21.00,26.97,30.02,9.61,38.60,1009.94,2039.02,3481.00,3306.11,3586.09,499.37,496.07,16.61,0000 0000 0000 0000 000000
2014-09-25 12:20:04,0.00,0.08,0.00,20.92,26.98,30.06,9.67,38.52,1009.84,2039.01,3481.00,3306.05,3586.03,500.86,497.60,16.65,0000 0000 0000 0000 000000
2014-09-25 12:25:06,-0.00,0.08,0.00,20.92,26.98,30.08,9.67,38.87,1009.80,2039.02,3481.00,3306.03,3586.03,499.84,496.80,16.69,0000 0000 0000 0000 000000
2014-09-25 12:30:07,0.00,0.08,0.00,20.98,26.98,30.08,9.66,39.66,1009.80,2039.00,3480.94,3306.01,3586.00,499.69,496.51,16.74,0000 0000 0000 0000 000000
2014-09-25 12:35:08,0.01,0.08,0.00,20.94,26.98,30.04,9.62,39.73,1009.78,2039.00,3480.67,3306.00,3586.00,500.17,496.96,16.78,0000 0000 0000 0000 000000
2014-09-25 12:40:09,0.01,0.08,0.00,20.96,26.99,30.05,9.66,39.55,1009.79,2039.01,3480.28,3306.00,3586.00,500.40,497.11,16.82,0000 0000 0000 0000 000000
2014-09-25 12:45:11,0.00,0.08,0.00,20.93,26.99,30.04,9.67,39.74,1009.79,2039.01,3480.07,3306.00,3585.98,500.19,497.03,16.86,0000 0000 0000 0000 000000
2014-09-25 12:50:12,0.00,0.08,0.00,20.92,26.99,30.11,9.67,39.88,1009.79,2039.02,3480.03,3306.00,3585.98,500.17,496.93,16.90,0000 0000 0000 0000 000000
2014-09-25 12:55:13,0.00,0.08,0.00,20.98,26.99,30.10,9.59,39.59,1009.79,2039.02,3480.04,3306.00,3585.98,500.03,496.57,16.95,0000 0000 0000 0000 000000
2014-09-25 13:00:14,-0.00,0.08,0.00,20.96,27.00,30.05,9.71,39.63,1009.78,2039.02,3480.00,3306.00,3585.98,499.99,496.64,16.99,0000 0000 0000 0000 000000